| time (UTC) | temp C | wind direction | speed KPH | gust KPH | rain 1hr cm | rain 24hr cm | rain mn cm | humidity % | barometer mb |
| 20260505203434 | 20 | 180 | 0.0 | 38.6 | 0.00 | 0.00 | 0.00 | 36 | 1006.8 |
| 20260505202932 | 20 | 180 | 1.6 | 37.0 | 0.00 | 0.00 | 0.00 | 36 | 1006.8 |
| 20260505202429 | 19 | 180 | 0.0 | 1.6 | 0.00 | 0.00 | 0.00 | 35 | 1006.7 |
| 20260505201927 | 19 | 180 | 0.0 | 30.6 | 0.00 | 0.00 | 0.00 | 35 | 1006.5 |
| 20260505201425 | 19 | 180 | 0.0 | 0.0 | 0.00 | 0.00 | 0.00 | 34 | 1006.4 |
| 20260505200922 | 20 | 180 | 0.0 | 1.6 | 0.00 | 0.00 | 0.00 | 34 | 1006.3 |
| 20260505200420 | 20 | 180 | 0.0 | 0.0 | 0.00 | 0.00 | 0.00 | 34 | 1006.1 |
| 20260505195917 | 20 | 180 | 0.0 | 25.7 | 0.00 | 0.00 | 0.00 | 34 | 1006.0 |
| 20260505195415 | 20 | 225 | 0.0 | 0.0 | 0.00 | 0.00 | 0.00 | 33 | 1005.9 |
| 20260505194913 | 20 | 225 | 0.0 | 0.0 | 0.00 | 0.00 | 0.00 | 33 | 1005.8 |
| 20260505194410 | 20 | 225 | 0.0 | 1.6 | 0.00 | 0.00 | 0.00 | 33 | 1005.7 |
| 20260505193908 | 20 | 225 | 0.0 | 1.6 | 0.00 | 0.00 | 0.00 | 32 | 1005.7 |
| 20260505193405 | 20 | 225 | 0.0 | 0.0 | 0.00 | 0.00 | 0.00 | 32 | 1005.7 |
| 20260505191858 | 21 | 0 | 0.0 | 1.6 | 0.00 | 0.00 | 0.00 | 31 | 1005.7 |
| 20260505191356 | 21 | 0 | 0.0 | 0.0 | 0.00 | 0.00 | 0.00 | 30 | 1005.6 |
| 20260505190853 | 21 | 0 | 0.0 | 20.9 | 0.00 | 0.00 | 0.00 | 30 | 1005.6 |
| 20260505190351 | 21 | 0 | 0.0 | 0.0 | 0.00 | 0.00 | 0.00 | 30 | 1005.5 |
| 20260505185848 | 21 | 0 | 0.0 | 11.3 | 0.00 | 0.00 | 0.00 | 29 | 1005.5 |
| 20260505185346 | 21 | 0 | 0.0 | 0.0 | 0.00 | 0.00 | 0.00 | 29 | 1005.5 |
| 20260505184844 | 22 | 0 | 0.0 | 0.0 | 0.00 | 0.00 | 0.00 | 28 | 1005.4 |
| 20260505184341 | 22 | 0 | 0.0 | 0.0 | 0.00 | 0.00 | 0.00 | 28 | 1005.4 |
| 20260505183336 | 23 | 0 | 0.0 | 33.8 | 0.00 | 0.00 | 0.00 | 27 | 1005.3 |
| 20260505182834 | 23 | 225 | 1.6 | 32.2 | 0.00 | 0.00 | 0.00 | 26 | 1005.2 |
| 20260505182332 | 23 | 225 | 0.0 | 0.0 | 0.00 | 0.00 | 0.00 | 26 | 1005.2 |
| 20260505181829 | 23 | 225 | 0.0 | 0.0 | 0.00 | 0.00 | 0.00 | 25 | 1005.2 |
| 20260505181327 | 24 | 225 | 0.0 | 0.0 | 0.00 | 0.00 | 0.00 | 25 | 1005.1 |
| 20260505180824 | 24 | 225 | 0.0 | 0.0 | 0.00 | 0.00 | 0.00 | 24 | 1005.2 |
| 20260505180322 | 25 | 225 | 0.0 | 0.0 | 0.00 | 0.00 | 0.00 | 24 | 1005.2 |
| 20260505175819 | 25 | 225 | 0.0 | 0.0 | 0.00 | 0.00 | 0.00 | 23 | 1005.2 |
| 20260505175317 | 26 | 225 | 0.0 | 0.0 | 0.00 | 0.00 | 0.00 | 23 | 1005.2 |
| 20260505174815 | 27 | 225 | 0.0 | 0.0 | 0.00 | 0.00 | 0.00 | 22 | 1005.2 |
| 20260505174312 | 27 | 225 | 0.0 | 0.0 | 0.00 | 0.00 | 0.00 | 22 | 1005.2 |
| 20260505173810 | 28 | 225 | 0.0 | 0.0 | 0.00 | 0.00 | 0.00 | 21 | 1005.2 |
| 20260505173307 | 30 | 225 | 0.0 | 0.0 | 0.00 | 0.00 | 0.00 | 21 | 1005.2 |
| 20260505172805 | 31 | 225 | 0.0 | 0.0 | 0.00 | 0.00 | 0.00 | 21 | 1005.2 |
| 20260505172305 | 31 | 225 | 0.0 | 9.7 | 0.00 | 0.00 | 0.00 | 20 | 1005.2 |
| 20260505171800 | 31 | 225 | 0.0 | 1.6 | 0.00 | 0.00 | 0.00 | 20 | 1005.1 |
| 20260505171258 | 31 | 270 | 0.0 | 0.0 | 0.00 | 0.00 | 0.00 | 20 | 1005.1 |
| 20260505170755 | 30 | 270 | 0.0 | 0.0 | 0.00 | 0.00 | 0.00 | 20 | 1005.1 |
| 20260505170253 | 30 | 270 | 0.0 | 33.8 | 0.00 | 0.00 | 0.00 | 19 | 1005.1 |
| 20260505165751 | 32 | 180 | 0.0 | 29.0 | 0.00 | 0.00 | 0.00 | 18 | 1005.2 |
| 20260505165248 | 35 | 180 | 0.0 | 1.6 | 0.00 | 0.00 | 0.00 | 18 | 1005.2 |
| 20260505164746 | 36 | 270 | 0.0 | 0.0 | 0.00 | 0.00 | 0.00 | 17 | 1005.2 |
| 20260505164243 | 36 | 270 | 0.0 | 0.0 | 0.00 | 0.00 | 0.00 | 18 | 1005.3 |
| 20260505162736 | 36 | 225 | 0.0 | 25.7 | 0.00 | 0.00 | 0.00 | 18 | 1005.4 |
| 20260505162234 | 34 | 270 | 0.0 | 4.8 | 0.00 | 0.00 | 0.00 | 18 | 1005.5 |
| 20260505161731 | 32 | 315 | 0.0 | 1.6 | 0.00 | 0.00 | 0.00 | 19 | 1005.6 |
| 20260505161229 | 31 | 270 | 0.0 | 56.3 | 0.00 | 0.00 | 0.00 | 18 | 1005.6 |
| 20260505160726 | 32 | 270 | 0.0 | 1.6 | 0.00 | 0.00 | 0.00 | 17 | 1005.7 |
| 20260505160224 | 34 | 45 | 0.0 | 0.0 | 0.00 | 0.00 | 0.00 | 17 | 1005.7 |
| 20260505153210 | 32 | 225 | 0.0 | 25.7 | 0.00 | 0.00 | 0.00 | 17 | 1005.6 |
| 20260505152707 | 32 | 180 | 0.0 | 29.0 | 0.00 | 0.00 | 0.00 | 17 | 1005.6 |
| 20260505152205 | 33 | 180 | 0.0 | 9.7 | 0.00 | 0.00 | 0.00 | 17 | 1005.6 |
| 20260505151702 | 34 | 180 | 0.0 | 29.0 | 0.00 | 0.00 | 0.00 | 16 | 1005.6 |
| 20260505151200 | 33 | 180 | 0.0 | 3.2 | 0.00 | 0.00 | 0.00 | 17 | 1005.6 |
| 20260505150657 | 32 | 180 | 0.0 | 14.5 | 0.00 | 0.00 | 0.00 | 16 | 1005.6 |
| 20260505150155 | 33 | 180 | 0.0 | 30.6 | 0.00 | 0.00 | 0.00 | 16 | 1005.6 |
| 20260505140628 | 38 | 270 | 0.0 | 8.0 | 0.00 | 0.00 | 0.00 | 15 | 1005.8 |
| 20260505140126 | 40 | 180 | 0.0 | 20.9 | 0.00 | 0.00 | 0.00 | 15 | 1005.9 |
| 20260505124550 | 41 | 45 | 1.6 | 20.9 | 0.00 | 0.00 | 0.00 | 18 | 1006.9 |
| 20260505124047 | 40 | 135 | 0.0 | 22.5 | 0.00 | 0.00 | 0.00 | 19 | 1007.0 |
| 20260505123043 | 41 | 180 | 0.0 | 3.2 | 0.00 | 0.00 | 0.00 | 20 | 1007.2 |
| 20260505122540 | 40 | 45 | 0.0 | 1.6 | 0.00 | 0.00 | 0.00 | 20 | 1007.3 |
| 20260505122038 | 38 | 45 | 1.6 | 25.7 | 0.00 | 0.00 | 0.00 | 21 | 1007.4 |
| 20260505121535 | 37 | 45 | 1.6 | 27.4 | 0.00 | 0.00 | 0.00 | 21 | 1007.4 |
| 20260505121033 | 36 | 135 | 1.6 | 25.7 | 0.00 | 0.00 | 0.00 | 22 | 1007.6 |
| 20260505120531 | 36 | 45 | 29.0 | 29.0 | 0.00 | 0.00 | 0.00 | 22 | 1007.7 |
| 20260505120028 | 36 | 315 | 0.0 | 6.4 | 0.00 | 0.00 | 0.00 | 23 | 1007.9 |
| 20260505115526 | 37 | 90 | 4.8 | 8.0 | 0.00 | 0.00 | 0.00 | 21 | 1007.9 |
| 20260505115023 | 37 | 45 | 0.0 | 48.3 | 0.00 | 0.00 | 0.00 | 23 | 1008.0 |
| 20260505114521 | 37 | 45 | 1.6 | 25.7 | 0.00 | 0.00 | 0.00 | 23 | 1008.1 |
| 20260505114018 | 38 | 180 | 0.0 | 24.1 | 0.00 | 0.00 | 0.00 | 23 | 1008.2 |
| 20260505113516 | 38 | 45 | 1.6 | 20.9 | 0.00 | 0.00 | 0.00 | 23 | 1008.3 |
| 20260505113014 | 36 | 0 | 0.0 | 25.7 | 0.00 | 0.00 | 0.00 | 25 | 1008.4 |
| 20260505112511 | 36 | 45 | 1.6 | 27.4 | 0.00 | 0.00 | 0.00 | 25 | 1008.6 |
| 20260505112009 | 36 | 135 | 3.2 | 22.5 | 0.00 | 0.00 | 0.00 | 24 | 1008.6 |
| 20260505111004 | 34 | 45 | 0.0 | 32.2 | 0.00 | 0.00 | 0.00 | 26 | 1008.7 |
| 20260505110502 | 35 | 45 | 0.0 | 27.4 | 0.00 | 0.00 | 0.00 | 26 | 1008.8 |
| 20260505101940 | 33 | 45 | 3.2 | 30.6 | 0.00 | 0.00 | 0.00 | 29 | 1009.5 |
| 20260505101437 | 31 | 45 | 1.6 | 4.8 | 0.00 | 0.00 | 0.00 | 30 | 1009.6 |
| 20260505100935 | 31 | 45 | 0.0 | 30.6 | 0.00 | 0.00 | 0.00 | 31 | 1009.6 |
| 20260505100433 | 32 | 45 | 0.0 | 6.4 | 0.00 | 0.00 | 0.00 | 30 | 1009.7 |
| 20260505095930 | 31 | 0 | 1.6 | 33.8 | 0.00 | 0.00 | 0.00 | 31 | 1009.8 |
| 20260505095428 | 30 | 0 | 0.0 | 37.0 | 0.00 | 0.00 | 0.00 | 32 | 1009.9 |
| 20260505094925 | 31 | 0 | 1.6 | 32.2 | 0.00 | 0.00 | 0.00 | 32 | 1009.9 |
| 20260505094423 | 31 | 135 | 4.8 | 29.0 | 0.00 | 0.00 | 0.00 | 31 | 1010.0 |
| 20260505093920 | 31 | 45 | 1.6 | 12.9 | 0.00 | 0.00 | 0.00 | 32 | 1010.1 |
| 20260505093418 | 31 | 0 | 1.6 | 3.2 | 0.00 | 0.00 | 0.00 | 32 | 1010.2 |
| 20260505092916 | 30 | 45 | 3.2 | 33.8 | 0.00 | 0.00 | 0.00 | 33 | 1010.2 |
| 20260505092413 | 30 | 45 | 32.2 | 32.2 | 0.00 | 0.00 | 0.00 | 33 | 1010.2 |
| 20260505091408 | 30 | 45 | 0.0 | 29.0 | 0.00 | 0.00 | 0.00 | 34 | 1010.4 |
| 20260505090906 | 30 | 14.5 | 35.4 | 0.00 | 0.00 | 0.00 | 34 | 1010.4 | |
| 20260505090404 | 30 | 45 | 0.0 | 24.1 | 0.00 | 0.00 | 0.00 | 35 | 1010.5 |
| 20260505085901 | 30 | 45 | 0.0 | 8.0 | 0.00 | 0.00 | 0.00 | 36 | 1010.7 |
| 20260505085359 | 30 | 45 | 1.6 | 32.2 | 0.00 | 0.00 | 0.00 | 36 | 1010.6 |
| 20260505084856 | 29 | 0 | 0.0 | 9.7 | 0.00 | 0.00 | 0.00 | 37 | 1010.7 |
| 20260505084354 | 29 | 135 | 1.6 | 27.4 | 0.00 | 0.00 | 0.00 | 37 | 1010.7 |
| 20260505083852 | 28 | 45 | 0.0 | 16.1 | 0.00 | 0.00 | 0.00 | 39 | 1010.7 |
| 20260505083349 | 27 | 45 | 0.0 | 32.2 | 0.00 | 0.00 | 0.00 | 39 | 1010.8 |
| 20260505082847 | 28 | 45 | 0.0 | 33.8 | 0.00 | 0.00 | 0.00 | 39 | 1010.8 |
| 20260505082344 | 27 | 0 | 3.2 | 35.4 | 0.00 | 0.00 | 0.00 | 40 | 1010.8 |
| 20260505081842 | 27 | 45 | 1.6 | 3.2 | 0.00 | 0.00 | 0.00 | 40 | 1010.9 |
| 20260505081340 | 26 | 315 | 3.2 | 32.2 | 0.00 | 0.00 | 0.00 | 42 | 1010.9 |
| 20260505080837 | 26 | 0 | 0.0 | 30.6 | 0.00 | 0.00 | 0.00 | 42 | 1011.0 |
| 20260505080335 | 25 | 45 | 0.0 | 33.8 | 0.00 | 0.00 | 0.00 | 44 | 1011.1 |
| 20260505075832 | 25 | 315 | 1.6 | 3.2 | 0.00 | 0.00 | 0.00 | 43 | 1011.1 |
| 20260505075330 | 23 | 45 | 0.0 | 33.8 | 0.00 | 0.00 | 0.00 | 44 | 1011.1 |
| 20260505074827 | 21 | 135 | 0.0 | 0.0 | 0.00 | 0.00 | 0.00 | 45 | 1011.1 |
| 20260505074325 | 21 | 45 | 0.0 | 29.0 | 0.00 | 0.00 | 0.00 | 44 | 1011.1 |
| 20260505073823 | 21 | 45 | 0.0 | 3.2 | 0.00 | 0.00 | 0.00 | 44 | 1011.1 |
| 20260505073320 | 21 | 45 | 0.0 | 29.0 | 0.00 | 0.00 | 0.00 | 45 | 1011.1 |
| 20260505072818 | 20 | 45 | 0.0 | 33.8 | 0.00 | 0.00 | 0.00 | 45 | 1011.2 |
| 20260505072315 | 20 | 45 | 0.0 | 35.4 | 0.00 | 0.00 | 0.00 | 45 | 1011.3 |
| 20260505071311 | 20 | 45 | 0.0 | 30.6 | 0.00 | 0.00 | 0.00 | 45 | 1011.2 |
| 20260505070808 | 20 | 0 | 0.0 | 3.2 | 0.00 | 0.00 | 0.00 | 45 | 1011.3 |
| 20260505070306 | 20 | 45 | 0.0 | 9.7 | 0.00 | 0.00 | 0.00 | 46 | 1011.3 |
| 20260505065803 | 20 | 45 | 0.0 | 11.3 | 0.00 | 0.00 | 0.00 | 46 | 1011.3 |
| 20260505065301 | 20 | 0 | 0.0 | 30.6 | 0.00 | 0.00 | 0.00 | 46 | 1011.4 |
| 20260505064758 | 20 | 45 | 1.6 | 27.4 | 0.00 | 0.00 | 0.00 | 46 | 1011.4 |
| 20260505064256 | 20 | 0 | 0.0 | 3.2 | 0.00 | 0.00 | 0.00 | 46 | 1011.4 |
| 20260505063754 | 21 | 45 | 1.6 | 11.3 | 0.00 | 0.00 | 0.00 | 45 | 1011.4 |
| 20260505063251 | 21 | 315 | 0.0 | 1.6 | 0.00 | 0.00 | 0.00 | 47 | 1011.4 |
| 20260505062749 | 21 | 315 | 0.0 | 1.6 | 0.00 | 0.00 | 0.00 | 47 | 1011.4 |
| 20260505062246 | 21 | 180 | 0.0 | 9.7 | 0.00 | 0.00 | 0.00 | 47 | 1011.4 |
| 20260505061744 | 20 | 180 | 0.0 | 0.0 | 0.00 | 0.00 | 0.00 | 48 | 1011.4 |
| 20260505061242 | 20 | 180 | 0.0 | 1.6 | 0.00 | 0.00 | 0.00 | 49 | 1011.4 |
| 20260505060739 | 19 | 225 | 0.0 | 0.0 | 0.00 | 0.00 | 0.00 | 49 | 1011.4 |
| 20260505060237 | 19 | 225 | 0.0 | 0.0 | 0.00 | 0.00 | 0.00 | 49 | 1011.4 |
| 20260505055734 | 18 | 180 | 0.0 | 1.6 | 0.00 | 0.00 | 0.00 | 50 | 1011.4 |
| 20260505055232 | 17 | 180 | 0.0 | 0.0 | 0.00 | 0.00 | 0.00 | 50 | 1011.4 |
| 20260505054730 | 17 | 180 | 0.0 | 0.0 | 0.00 | 0.00 | 0.00 | 50 | 1011.3 |
| 20260505054227 | 17 | 180 | 0.0 | 0.0 | 0.00 | 0.00 | 0.00 | 50 | 1011.4 |
| 20260505053725 | 16 | 180 | 0.0 | 0.0 | 0.00 | 0.00 | 0.00 | 50 | 1011.4 |
| 20260505053222 | 16 | 180 | 0.0 | 0.0 | 0.00 | 0.00 | 0.00 | 50 | 1011.4 |
| 20260505052720 | 16 | 180 | 0.0 | 0.0 | 0.00 | 0.00 | 0.00 | 51 | 1011.3 |
| 20260505051715 | 15 | 180 | 0.0 | 0.0 | 0.00 | 0.00 | 0.00 | 50 | 1011.3 |
| 20260505051213 | 15 | 180 | 0.0 | 0.0 | 0.00 | 0.00 | 0.00 | 50 | 1011.3 |
| 20260505050710 | 14 | 180 | 0.0 | 0.0 | 0.00 | 0.00 | 0.00 | 50 | 1011.3 |
| 20260505050208 | 14 | 180 | 0.0 | 0.0 | 0.00 | 0.00 | 0.00 | 50 | 1011.2 |
| 20260505041646 | 12 | 180 | 0.0 | 0.0 | 0.00 | 0.00 | 0.00 | 50 | 1011.1 |
| 20260505041144 | 12 | 180 | 0.0 | 0.0 | 0.00 | 0.00 | 0.00 | 50 | 1011.0 |
| 20260505040641 | 12 | 180 | 0.0 | 0.0 | 0.00 | 0.00 | 0.00 | 50 | 1011.0 |
| 20260505040139 | 12 | 180 | 0.0 | 0.0 | 0.00 | 0.00 | 0.00 | 50 | 1011.0 |
| 20260505035636 | 12 | 180 | 0.0 | 0.0 | 0.00 | 0.00 | 0.00 | 50 | 1011.0 |
| 20260505035135 | 12 | 180 | 0.0 | 0.0 | 0.00 | 0.00 | 0.00 | 50 | 1011.0 |
| 20260505034632 | 12 | 180 | 0.0 | 0.0 | 0.00 | 0.00 | 0.00 | 50 | 1011.1 |
| 20260505034129 | 12 | 180 | 0.0 | 0.0 | 0.00 | 0.00 | 0.00 | 49 | 1011.0 |
| 20260505033627 | 12 | 180 | 0.0 | 0.0 | 0.00 | 0.00 | 0.00 | 49 | 1011.0 |
| 20260505033124 | 12 | 180 | 0.0 | 0.0 | 0.00 | 0.00 | 0.00 | 49 | 1011.0 |
| 20260505032120 | 12 | 180 | 0.0 | 0.0 | 0.00 | 0.00 | 0.00 | 49 | 1011.0 |
| 20260505031115 | 12 | 180 | 0.0 | 0.0 | 0.00 | 0.00 | 0.00 | 48 | 1011.1 |
| 20260505030612 | 12 | 180 | 0.0 | 0.0 | 0.00 | 0.00 | 0.00 | 48 | 1011.1 |
| 20260505030110 | 12 | 180 | 0.0 | 0.0 | 0.00 | 0.00 | 0.00 | 48 | 1011.1 |
| 20260505025608 | 13 | 180 | 0.0 | 0.0 | 0.00 | 0.00 | 0.00 | 48 | 1011.2 |
| 20260505025105 | 13 | 180 | 0.0 | 0.0 | 0.00 | 0.00 | 0.00 | 48 | 1011.2 |
| 20260505024603 | 13 | 180 | 0.0 | 0.0 | 0.00 | 0.00 | 0.00 | 48 | 1011.3 |
| 20260505024100 | 13 | 180 | 0.0 | 1.6 | 0.00 | 0.00 | 0.00 | 47 | 1011.3 |
| 20260505023558 | 13 | 180 | 0.0 | 0.0 | 0.00 | 0.00 | 0.00 | 47 | 1011.3 |
| 20260505023055 | 13 | 225 | 0.0 | 0.0 | 0.00 | 0.00 | 0.00 | 47 | 1011.2 |
| 20260505022553 | 12 | 225 | 0.0 | 0.0 | 0.00 | 0.00 | 0.00 | 47 | 1011.3 |
| 20260505021548 | 13 | 225 | 0.0 | 1.6 | 0.00 | 0.00 | 0.00 | 46 | 1011.4 |
| 20260505021046 | 13 | 225 | 0.0 | 0.0 | 0.00 | 0.00 | 0.00 | 46 | 1011.4 |
| 20260505020544 | 13 | 225 | 0.0 | 0.0 | 0.00 | 0.00 | 0.00 | 46 | 1011.4 |
| 20260505015539 | 13 | 225 | 0.0 | 0.0 | 0.00 | 0.00 | 0.00 | 45 | 1011.5 |
| 20260505015036 | 13 | 225 | 0.0 | 0.0 | 0.00 | 0.00 | 0.00 | 45 | 1011.5 |
| 20260505014534 | 13 | 225 | 0.0 | 0.0 | 0.00 | 0.00 | 0.00 | 45 | 1011.5 |
| 20260505014031 | 13 | 225 | 0.0 | 0.0 | 0.00 | 0.00 | 0.00 | 45 | 1011.6 |
| 20260505013529 | 13 | 225 | 0.0 | 0.0 | 0.00 | 0.00 | 0.00 | 44 | 1011.6 |
| 20260505013027 | 13 | 225 | 0.0 | 43.5 | 0.00 | 0.00 | 0.00 | 44 | 1011.5 |
| 20260505012524 | 13 | 225 | 0.0 | 8.0 | 0.00 | 0.00 | 0.00 | 44 | 1011.6 |
| 20260505012022 | 13 | 225 | 0.0 | 1.6 | 0.00 | 0.00 | 0.00 | 44 | 1011.6 |
| 20260505011519 | 13 | 225 | 0.0 | 0.0 | 0.00 | 0.00 | 0.00 | 44 | 1011.7 |
| 20260505011017 | 13 | 225 | 0.0 | 0.0 | 0.00 | 0.00 | 0.00 | 43 | 1011.7 |
| 20260505010515 | 13 | 225 | 0.0 | 20.9 | 0.00 | 0.00 | 0.00 | 43 | 1011.6 |
| 20260505010012 | 13 | 225 | 0.0 | 0.0 | 0.00 | 0.00 | 0.00 | 43 | 1011.8 |
| 20260505005510 | 13 | 225 | 0.0 | 0.0 | 0.00 | 0.00 | 0.00 | 43 | 1011.7 |
| 20260505005007 | 13 | 225 | 0.0 | 0.0 | 0.00 | 0.00 | 0.00 | 42 | 1011.7 |
| 20260505004505 | 13 | 225 | 0.0 | 0.0 | 0.00 | 0.00 | 0.00 | 42 | 1011.7 |
| 20260505004002 | 13 | 225 | 0.0 | 0.0 | 0.00 | 0.00 | 0.00 | 42 | 1011.7 |
| 20260505003500 | 13 | 225 | 0.0 | 0.0 | 0.00 | 0.00 | 0.00 | 41 | 1011.8 |
| 20260505002958 | 13 | 225 | 0.0 | 1.6 | 0.00 | 0.00 | 0.00 | 41 | 1011.8 |
| 20260505002455 | 14 | 225 | 0.0 | 0.0 | 0.00 | 0.00 | 0.00 | 41 | 1011.7 |
| 20260505001953 | 14 | 225 | 0.0 | 0.0 | 0.00 | 0.00 | 0.00 | 41 | 1011.6 |
| 20260505001450 | 14 | 225 | 0.0 | 0.0 | 0.00 | 0.00 | 0.00 | 40 | 1011.7 |
| 20260505000948 | 14 | 225 | 0.0 | 0.0 | 0.00 | 0.00 | 0.00 | 40 | 1011.7 |
| 20260505000446 | 14 | 225 | 0.0 | 0.0 | 0.00 | 0.00 | 0.00 | 40 | 1011.7 |
| 20260504235943 | 14 | 225 | 0.0 | 0.0 | 0.00 | 0.00 | 0.00 | 39 | 1011.7 |
| 20260504235441 | 15 | 225 | 0.0 | 0.0 | 0.00 | 0.00 | 0.00 | 39 | 1011.6 |
| 20260504234938 | 15 | 225 | 0.0 | 0.0 | 0.00 | 0.00 | 0.00 | 39 | 1011.7 |
| 20260504234436 | 15 | 225 | 0.0 | 0.0 | 0.00 | 0.00 | 0.00 | 38 | 1011.7 |
| 20260504233933 | 15 | 225 | 0.0 | 0.0 | 0.00 | 0.00 | 0.00 | 38 | 1011.7 |
| 20260504233431 | 15 | 225 | 0.0 | 0.0 | 0.00 | 0.00 | 0.00 | 38 | 1011.7 |
| 20260504232929 | 15 | 225 | 0.0 | 0.0 | 0.00 | 0.00 | 0.00 | 37 | 1011.7 |
| 20260504232426 | 15 | 225 | 0.0 | 0.0 | 0.00 | 0.00 | 0.00 | 37 | 1011.7 |
| 20260504231924 | 16 | 225 | 0.0 | 0.0 | 0.00 | 0.00 | 0.00 | 37 | 1011.7 |
| 20260504231421 | 16 | 225 | 0.0 | 0.0 | 0.00 | 0.00 | 0.00 | 36 | 1011.7 |
| 20260504230919 | 16 | 225 | 0.0 | 0.0 | 0.00 | 0.00 | 0.00 | 36 | 1011.7 |
| 20260504230417 | 16 | 225 | 0.0 | 0.0 | 0.00 | 0.00 | 0.00 | 35 | 1011.7 |
| 20260504225914 | 16 | 225 | 0.0 | 0.0 | 0.00 | 0.00 | 0.00 | 35 | 1011.8 |
| 20260504225412 | 17 | 225 | 0.0 | 0.0 | 0.00 | 0.00 | 0.00 | 35 | 1011.8 |
| 20260504224909 | 17 | 225 | 0.0 | 25.7 | 0.00 | 0.00 | 0.00 | 34 | 1011.8 |
| 20260504224407 | 17 | 225 | 0.0 | 3.2 | 0.00 | 0.00 | 0.00 | 34 | 1011.8 |
| 20260504223905 | 17 | 225 | 0.0 | 0.0 | 0.00 | 0.00 | 0.00 | 34 | 1011.9 |
| 20260504223402 | 17 | 225 | 0.0 | 0.0 | 0.00 | 0.00 | 0.00 | 34 | 1011.8 |
| 20260504222357 | 18 | 225 | 0.0 | 0.0 | 0.00 | 0.00 | 0.00 | 33 | 1011.9 |
| 20260504221855 | 18 | 225 | 0.0 | 1.6 | 0.00 | 0.00 | 0.00 | 33 | 1011.8 |
| 20260504221352 | 18 | 225 | 0.0 | 1.6 | 0.00 | 0.00 | 0.00 | 33 | 1011.8 |
| 20260504220850 | 18 | 225 | 0.0 | 0.0 | 0.00 | 0.00 | 0.00 | 32 | 1011.8 |
| 20260504220348 | 18 | 225 | 0.0 | 0.0 | 0.00 | 0.00 | 0.00 | 32 | 1011.8 |
| 20260504215845 | 18 | 225 | 0.0 | 0.0 | 0.00 | 0.00 | 0.00 | 31 | 1011.8 |
| 20260504215343 | 19 | 225 | 0.0 | 1.6 | 0.00 | 0.00 | 0.00 | 31 | 1011.8 |
| 20260504214840 | 20 | 225 | 0.0 | 0.0 | 0.00 | 0.00 | 0.00 | 31 | 1011.9 |
| 20260504214338 | 20 | 225 | 0.0 | 38.6 | 0.00 | 0.00 | 0.00 | 31 | 1011.9 |
| 20260504213836 | 18 | 225 | 0.0 | 0.0 | 0.00 | 0.00 | 0.00 | 31 | 1011.8 |
| 20260504213333 | 19 | 225 | 0.0 | 0.0 | 0.00 | 0.00 | 0.00 | 30 | 1011.9 |
| 20260504212831 | 20 | 225 | 0.0 | 0.0 | 0.00 | 0.00 | 0.00 | 30 | 1011.9 |
| 20260504212328 | 21 | 225 | 0.0 | 0.0 | 0.00 | 0.00 | 0.00 | 29 | 1011.8 |
| 20260504211826 | 20 | 225 | 0.0 | 0.0 | 0.00 | 0.00 | 0.00 | 29 | 1011.9 |
| 20260504210821 | 21 | 225 | 0.0 | 1.6 | 0.00 | 0.00 | 0.00 | 28 | 1012.0 |
| 20260504210319 | 21 | 225 | 0.0 | 3.2 | 0.00 | 0.00 | 0.00 | 29 | 1012.1 |
| 20260504205816 | 21 | 225 | 0.0 | 12.9 | 0.00 | 0.00 | 0.00 | 28 | 1012.0 |
| 20260504205314 | 21 | 270 | 0.0 | 0.0 | 0.00 | 0.00 | 0.00 | 28 | 1012.1 |
| 20260504204811 | 21 | 270 | 0.0 | 0.0 | 0.00 | 0.00 | 0.00 | 28 | 1012.0 |
| 20260504204309 | 22 | 225 | 0.0 | 17.7 | 0.00 | 0.00 | 0.00 | 28 | 1012.0 |
| 20260504203807 | 22 | 225 | 0.0 | 38.6 | 0.00 | 0.00 | 0.00 | 27 | 1012.0 |